Tracking 30105 objects as of 24-Jan-2025
HD Live streaming from Space Station
objects crossing your sky now

COSMOS 1823 DEB

Track COSMOS 1823 DEB now!
10-day predictions


NORAD ID: 18758
Int'l Code: 1987-020AK
Perigee: 1,480.1 km
Apogee: 1,564.3 km
Inclination: 73.6 °
Period: 116.3 minutes
Semi major axis: 7893 km
RCS: 0.06 m2 (small)
Launch date: February 20, 1987
Source: Commonwealth of Independent States (former USSR) (CIS)
Launch site: PLESETSK MISSILE AND SPACE COMPLEX (PKMTR)

Note: This is SATELLITE DEBRIS
Your satellite tracking list
Your tracking list is empty




NASA's NSSDC Master Catalog

Two Line Element Set (TLE):
1 18758U 87020AK  25023.82858465  .00000052  00000-0  52986-3 0  9994
2 18758  73.6258 156.7473 0053345 355.5073 159.3277 12.37999340675169
Source of the keplerian elements: AFSPC